Home > Weather > Melo > Past weeks

Flag for Uruguay Weather for the Past 2 Weeks in Melo, Uruguay

Now
84 °F

Partly sunny.


Feels Like: 87 °F
Forecast: 66 / 88 °F
Wind: 12 mph from Southeast

Location: Pelotas Airport

Current Time: Feb 6, 2016 at 3:45:36 PM

Latest Report: Feb 6, 2016 at 3:00 PM


Visibility: N/A

Pressure: 30.07 "Hg

Humidity: 58%

Dew point: 68 °F

Location of MeloLocation

Historic Weather in Melo — Graph

°F

Melo Temperature Yesterday

Maximum temperature yesterday: 84 °F (at 12:00 PM)
Minimum temperature yesterday: 66 °F (at 1:00 AM)
Average temperature yesterday: 75 °F

High & Low Weather Summary for the Past Weeks

 TemperatureHumidityPressure
High100 °F (Jan 25, 3:00 PM)100% (Jan 24, 5:00 AM)30.09 "Hg (Jan 24, 5:00 AM)
Low36 °F (Jan 29, 5:00 PM)32% (Feb 2, 3:00 AM)29.62 "Hg (Jan 25, 4:00 PM)
Average75 °F76%29.93 "Hg
* Reported Jan 22 3:00 PM — Feb 6 3:00 PM, Melo, Weather by CustomWeather, © 2016

Note: Actual official high and low records may vary slightly from our data, if they occured in-between our weather recording intervals... More about our weather records

Advertising

Melo Weather History for the Previous 24 Hours

 ConditionsComfort  
Time TempWeatherWind HumidityBarometerVisibility
3:00 PM
Sat, Feb 6
84 °FPartly sunny.12 mph58%30.07 "HgN/A
2:00 PM84 °FPartly sunny.10 mph58%30.07 "HgN/A
1:00 PM86 °FScattered clouds.14 mph49%30.09 "HgN/A
12:00 PM86 °FScattered clouds.5 mph46%30.09 "HgN/A
11:00 AM86 °FScattered clouds.9 mph49%30.09 "HgN/A
10:00 AM84 °FScattered clouds.10 mph51%30.09 "HgN/A
4:45 AM66 °FClear.3 mph100%30.07 "Hg10 mi
4:00 AM68 °FClear.3 mph94%30.07 "Hg10 mi
3:00 AM66 °FPassing clouds.1 mph94%30.04 "HgN/A
2:00 AM68 °FPassing clouds.2 mph94%30.07 "HgN/A
1:00 AM68 °FPassing clouds.1 mph88%30.07 "HgN/A
12:00 AM66 °FPassing clouds.3 mph94%30.07 "HgN/A
11:00 PM
Fri, Feb 5
68 °FClear.5 mph88%30.07 "Hg10 mi
10:00 PM70 °FClear.7 mph83%30.07 "Hg10 mi
9:00 PM72 °FPassing clouds.5 mph83%30.07 "HgN/A
8:00 PM73 °FClear.9 mph78%30.04 "Hg10 mi
7:00 PM77 °FSunny.12 mph69%30.01 "Hg10 mi
6:00 PM81 °FSunny.10 mph62%29.98 "Hg10 mi
5:00 PM84 °FScattered clouds.12 mph51%29.98 "Hg52 mi
4:00 PM82 °FScattered clouds.7 mph58%30.01 "HgN/A
3:00 PM84 °FScattered clouds.9 mph55%30.01 "HgN/A
Weather by CustomWeather, © 2016

See weather overviewHow to use our weather pages